YAOGAN 2 DEB

Satellite information

Favourite Embed

Satellite Type and Status

DEBRISIN ORBIT

Key statistics

Satellite YAOGAN 2 DEB at a glance.

Uptime

6726

Days in orbit

Revolutions

≈ 14.5

Per day

Orbit

SSO

Sun Synchronous Orbit

Inclination

97.8

Latest

Satellite identification and parameters

Extended collection of information and parameters for YAOGAN 2 DEB.

Object identification

Identified? True

Debris? True

Object name: YAOGAN 2 DEB

International designator: 2007-019B

Object number (NORAD): 38262

Object ID (CCSDS): 38262

Country: PEOPLES REPUBLIC OF CHINA (PRC)

Current information (Y/N): Y

RCS size: SMALL

Orbital parameters

Period: 99.422 minutes

Inclination: 97.8429 deg

SMA: 7109.12 km

Apoapsis: 840.208 km

Periapsis: 621.762 km

RAAN: 216.7951 deg

Eccentricy: 0.0153638

Argument of periapsis: 353.6221 deg

Mean anomaly: 35.8352 deg

Mean motion: 14.48368285 rev/day

Mean motion (dot): 0.00008129 rev/day2

B* drag term: 0.0018796 1/REarth

Two-line elements (TLE)

Creation date: Oct. 21, 2025, 11:56 p.m.

Reference frame: TEME

Reference center: EARTH

Epoch: Oct. 21, 2025, 5:37 p.m. UTC

TLE line 0: 0 YAOGAN 2 DEB

TLE line 1: 1 38262U 07019B 25294.73415152 .00008129 00000-0 18796-2 0 9991

TLE line 2: 2 38262 97.8429 216.7951 0153638 353.6221 35.8352 14.48368285936925

Live tracking on map

Real-time ground track for satellite YAOGAN 2 DEB.

In-orbit conjunctions

A list of the most updated potential collisions computed for object YAOGAN 2 DEB.

Target Orbit TCA Probability of collision Miss distance Type
CZ-2C DEB SSO 2025-05-15 11:12:25 0.0001574055 244.0 (m) DEBRIS
SL-16 R/B LEO 2025-02-20 08:42:51 0.001054412 259.0 (m) ROCKET BODY

Associated space launch

Chinese Earth observation satellite likely also used for military reconnaissance

YAOGAN 2 DEB was lifted into orbit during the mission ‘Long March 2D | Yaogan Weixing 2’, on board a Long March 2D space rocket.

The launch took place on May 25, 2007, 7:12 a.m. from Launch Area 4 (SLS-2 / 603).

For more information about the launch, click the button.

Launch to space Long March 2D | Yaogan Weixing 2
Long March 2D | Yaogan Weixing 2

Agency: N/A

Status: Launch Successful

Launch date: May 25, 2007, 7:12 a.m. UTC

Rocket: Long March 2D

Launch pad: Launch Area 4 (SLS-2 / 603)

Location: Jiuquan Satellite Launch Center, People's Republic of China

...

Latest news about this satellite

There are no fresh news available about this satellite. Check back as we update our databases every day.


Newsletter sign-up

Weekly statistics, charts and insights to help you stay on top of the space industry.